Regional Weather Roundup
Issued by NWS Sioux Falls, SD

Home | Current Version | Previous Version | Graphics & Text | Print | Product List | Glossary Off
Versions: 1 2 3 4 5 6 7 8 9 10 11 12 13 14 15 16 17 18 19 20 21 22 23 24 25 26 27 28 29 30 31 32 33 34 35 36 37 38 39 40 41 42 43 44 45 46 47 48 49 50

000
ASUS43 KFSD 220010
RWRFSD

WEATHER ROUNDUP FOR SE SOUTH DAKOTA/SW MINNESOTA/NW IOWA
NATIONAL WEATHER SERVICE SIOUX FALLS SD
600 PM CST TUE NOV 21 2017

NOTE: "FAIR" INDICATES FEW OR NO CLOUDS BELOW 12,000 FEET WITH NO
SIGNIFICANT WEATHER AND OR OBSTRUCTIONS TO VISIBILITY.


SDZ038>040-050-052>070-220100-
SOUTHEAST SOUTH DAKOTA

CITY           SKY/WX    TMP DP  RH WIND       PRES   REMARKS
BROOKINGS      CLOUDY    17   8  67 NW7       30.33R WCI   8
CHAMBERLAIN    PTCLDY    21  11  66 CALM      30.38F
6HR MIN TEMP:  21; 6HR MAX TEMP:  28;

HURON          CLOUDY    15   6  67 NW7       30.39S WCI   5
6HR MIN TEMP:  15; 6HR MAX TEMP:  26;

MADISON        FAIR      19   7  58 NW8       30.34S WCI   9
MITCHELL       CLOUDY    17   6  62 NW8       30.40S WCI   7
6HR MIN TEMP:  17; 6HR MAX TEMP:  27;

SIOUX FALLS    CLOUDY    22   8  55 W8        30.36R WCI  12
6HR MIN TEMP:  21; 6HR MAX TEMP:  29;

WINNER         FAIR      19  10  68 CALM      30.36F
YANKTON        CLOUDY    21   9  59 NW5       30.39R WCI  15
$$

MNZ071-072-080-081-089-090-097-098-220100-
SOUTHWEST MINNESOTA

CITY           SKY/WX    TMP DP  RH WIND       PRES   REMARKS
FAIRMONT       CLEAR     23  11  60 NW14      30.30R WCI  11
JACKSON        PTCLDY    23   9  54 NW16G23   30.31R WCI  10
LUVERNE        CLEAR     21   9  58 NW7       30.34S WCI  13
MARSHALL       CLEAR     20   9  62 NW6       30.34R WCI  12
6HR MIN TEMP:  20; 6HR MAX TEMP:  26;

MONTEVIDEO     CLEAR     19   7  58 N7        30.34S WCI  10
PIPESTONE      CLEAR     21   7  53 NW10      30.31S WCI  10
REDWOOD FALLS  CLEAR     23   8  52 NW13      30.33R WCI  11
WINDOM           N/A     21   7  53 NW12      30.30R WCI   9
WORTHINGTON    CLEAR     21   8  57 NW9       30.32R WCI  11
$$

IAZ001>003-012>014-020>022-031-032-NEZ013-014-SDZ071-220100-
NORTHWEST IOWA

CITY           SKY/WX    TMP DP  RH WIND       PRES   REMARKS
CHEROKEE       CLEAR     25  10  53 NW7       30.33R WCI  17
DENISON        CLEAR     25  12  58 NW9       30.34R WCI  15
ESTHERVILLE    CLEAR     22  10  60 NW17      30.29R WCI   8
LE MARS        CLEAR     23  10  58 NW8       30.36R WCI  14
ORANGE CITY    CLEAR     25  10  54 NW5       30.33S WCI  19
SHELDON        CLEAR     23   9  54 NW9       30.32R WCI  13
SIOUX CITY     CLEAR     24  10  55 NW13      30.37R WCI  12
6HR MIN TEMP:  24; 6HR MAX TEMP:  30;

SPENCER        CLEAR     22   9  57 NW10      30.32R WCI  11
6HR MIN TEMP:  22; 6HR MAX TEMP:  31;

STORM LAKE     CLEAR     25  10  54 NW14      30.31R WCI  13
$$

ABBREVIATIONS USED IN REMARKS
   TC - TEMPERATURE IN CELSIUS
  WCI - WIND CHILL INDEX
   HX - HEAT INDEX
  VSB - VISIBILITY




USA.gov is the U.S. government's official web portal to all federal, state and local government web resources and services.